Location: Passo di Treia
(43.2833°N, 13.3333°E)
Time: 02:08:58
(UTC+00:00)

Cosmos 1812 - Pass Details

Date: 09 December 2019
Orbit: 516 x 523 km, 82.5° (Epoch: 20 January)

Event Time Altitude Azimuth Distance (km) Brightness Sun altitude
Rises 16:11:42 0° 175° (S) 2,637 6.6 -7.4°
Reaches altitude 10° 16:13:51 10° 170° (S) 1,755 5.6 -7.7°
Maximum altitude 16:17:36 52° 94° (E) 659 2.9 -8.4°
Drops below altitude 10° 16:21:22 10° 18° (NNE) 1,771 5.0 -9.0°
Sets 16:23:33 0° 14° (NNE) 2,664 6.0 -9.4°
